Terminal Aerodrome Forecast
Issued by NWS

Home | Current Version | Previous Version | Text Only | Print | Product List | Glossary On
Versions: 1 2 3 4 5 6 7 8 9 10 11 12 13 14 15 16 17 18
000
FTUS46 KPQR 300520
TAFONP
TAF
KONP 300520Z 3006/3106 34018G28KT P6SM OVC008
     FM300900 34012G20KT 5SM BR OVC004
     FM301500 35010G18KT P6SM OVC015
     FM302100 35015G22KT P6SM SCT025=

USA.gov is the U.S. government's official web portal to all federal, state and local government web resources and services.